TimeEDT,TemperatureF,Dew PointF,Humidity,Sea Level PressureIn,VisibilityMPH,Wind Direction,Wind SpeedMPH,Gust SpeedMPH,PrecipitationIn,Events,Conditions,WindDirDegrees,DateUTC
12:54 AM,66.0,59.0,78,30.17,8.0,SW,3.5,-,N/A,,Scattered Clouds,230,2012-03-17 04:54:00
1:54 AM,64.0,59.0,84,30.19,8.0,West,4.6,-,N/A,,Overcast,280,2012-03-17 05:54:00
2:54 AM,64.9,57.0,75,30.17,10.0,Calm,Calm,-,N/A,,Scattered Clouds,0,2012-03-17 06:54:00
3:54 AM,61.0,57.0,87,30.16,10.0,Calm,Calm,-,N/A,,Clear,0,2012-03-17 07:54:00
4:54 AM,61.0,57.9,90,30.16,10.0,SW,4.6,-,N/A,,Partly Cloudy,230,2012-03-17 08:54:00
5:54 AM,62.1,57.9,86,30.17,10.0,SW,4.6,-,N/A,,Overcast,230,2012-03-17 09:54:00
6:54 AM,61.0,57.0,87,30.17,10.0,Calm,Calm,-,N/A,,Partly Cloudy,0,2012-03-17 10:54:00
7:39 AM,60.8,57.2,88,30.20,2.5,WSW,5.8,-,N/A,,Clear,240,2012-03-17 11:39:00
7:47 AM,60.8,57.2,88,30.20,3.0,WSW,4.6,-,N/A,,Clear,250,2012-03-17 11:47:00
7:54 AM,59.0,57.0,93,30.21,3.0,West,4.6,-,N/A,,Clear,280,2012-03-17 11:54:00
8:18 AM,60.8,57.2,88,30.21,2.5,West,3.5,-,N/A,,Clear,260,2012-03-17 12:18:00
8:27 AM,62.6,57.2,82,30.21,3.0,WSW,3.5,-,N/A,,Clear,250,2012-03-17 12:27:00
8:54 AM,64.0,59.0,84,30.21,4.0,WSW,5.8,-,N/A,,Haze,240,2012-03-17 12:54:00
9:54 AM,68.0,59.0,73,30.22,7.0,Variable,3.5,-,N/A,,Clear,0,2012-03-17 13:54:00
10:54 AM,72.0,60.1,66,30.22,10.0,West,4.6,-,N/A,,Clear,260,2012-03-17 14:54:00
11:54 AM,75.0,59.0,57,30.22,10.0,Calm,Calm,-,N/A,,Clear,0,2012-03-17 15:54:00
12:54 PM,77.0,57.9,52,30.22,10.0,Variable,3.5,-,N/A,,Clear,0,2012-03-17 16:54:00
1:54 PM,78.1,57.0,48,30.19,10.0,WNW,4.6,-,N/A,,Clear,290,2012-03-17 17:54:00
2:54 PM,80.1,57.9,47,30.17,10.0,West,6.9,-,N/A,,Clear,280,2012-03-17 18:54:00
3:54 PM,82.0,57.0,42,30.15,10.0,Calm,Calm,-,N/A,,Partly Cloudy,0,2012-03-17 19:54:00
4:54 PM,81.0,57.9,45,30.13,10.0,SE,3.5,-,N/A,,Clear,140,2012-03-17 20:54:00
5:54 PM,82.0,57.0,42,30.13,10.0,NNE,3.5,-,N/A,,Partly Cloudy,30,2012-03-17 21:54:00
6:54 PM,79.0,57.9,48,30.14,10.0,NE,3.5,-,N/A,,Scattered Clouds,50,2012-03-17 22:54:00
7:54 PM,73.9,60.1,62,30.17,10.0,North,4.6,-,0.00,,Mostly Cloudy,10,2012-03-17 23:54:00
8:54 PM,71.1,57.9,63,30.20,10.0,East,5.8,-,N/A,,Partly Cloudy,100,2012-03-18 00:54:00
9:54 PM,68.0,60.1,76,30.21,10.0,ESE,9.2,-,N/A,,Mostly Cloudy,120,2012-03-18 01:54:00
10:54 PM,64.9,61.0,87,30.21,10.0,Calm,Calm,-,N/A,,Partly Cloudy,0,2012-03-18 02:54:00
11:54 PM,64.0,61.0,90,30.23,10.0,South,4.6,-,N/A,,Partly Cloudy,190,2012-03-18 03:54:00